Simultaneous Nadir Overpasses (SNOs) Predictions

Prediction of SNOs over PacNW region [( 10.00, 139.50) to ( 22.70, 165.60)] between NOAA-19 and NPP Satellites:

Table of predicted SNOs over PacNW region for the next 30.0 days since TLE Epoch: 11/2/2013
Index Date (NOAA-19) Time (NOAA-19) NOAA-19 Lat,Lon Date (NPP) Time (NPP) NPP Lat,Lon Distance(km) Time Diff (sec)
1 11/11/2013 14:58:20 22.63, 164.85 11/11/2013 14:59:32 23.60, 160.55 453.40 72
2 11/12/2013 03:56:53 22.66, 142.75 11/12/2013 03:53:47 22.01, 139.59 333.19 186
3 11/24/2013 03:24:58 16.86, 151.85 11/24/2013 03:26:37 15.85, 147.49 479.08 99
4 11/24/2013 16:01:42 13.82, 147.59 11/24/2013 15:59:10 14.54, 144.13 381.20 152




NCC Satellite Simultaneous Nadir Overpasses (SNOs) Prediction Service
